Location: Ponte Samoggia
(44.5667°N, 11.1333°E)
Time: 23:25:23
(UTC+00:00)

CZ-2D R/B - Pass Details

Date: 26 May 2022
Orbit: 791 x 845 km, 98.7° (Epoch: 26 June)

Event Time Altitude Azimuth Distance (km) Brightness Sun altitude
Rises 00:52:28 0° 15° (NNE) 3,378 6.8 -20.5°
Reaches altitude 10° 00:54:51 10° 16° (NNE) 2,433 5.8 -20.3°
Maximum altitude 01:00:15 80° 104° (ESE) 833 2.1 -19.9°
Enters shadow 01:02:29 36° 186° (S) 1,263 2.6 -19.7°
